sat.trackr.live / text

‹ back to catalog

SAUDISAT 2

NORAD 28371 · 2004-025F

PAYLOAD ACTIVE UNKNOWN

§ Identity

Operator
Country
SAUD
Launch date
2004-06-29
Launch site
TYMSC
Launch vehicle
Mass (kg)
RCS (m²)
0.27

Purposes: tech_demo

External: N2YO · Heavens-Above · Gunter

§ Orbital elements

Epoch: 2026-05-24T22:46:58.685376Z

Period
98.86 min
Inclination
98.5506°
Eccentricity
0.0024941
Mean motion
14.56667236 rev/d
Perigee alt
686.3 km
Apogee alt
721.6 km
Semi-major
7,082.1 km
B*
6.3021e-5
RAAN
144.3316°
Arg perigee
11.1090°
Mean anomaly
349.0652°
Rev number
16,236

§ Raw data

SAUDISAT 21 28371U 04025F   26144.94929034  .00000233  00000+0  63021-4 0  99922 28371  98.5506 144.3316 0024941  11.1090 349.0652 14.56667236162363

JSON: /api/v1/satellites/28371 · /tle

For live sub-satellite position, see the globe view (requires WebGL).

§ Visibility from observer

Set your observer location to see the next 7 days of passes ≥ 10°. The values pass through the URL so the page stays shareable.

No JS? Fill the form by hand. The geolocation button needs JavaScript.

§ Radio — SatNOGS DB

ModeDescriptionDownlinkUplink
FM Mode V TLM 137.513 MHz

1 transmitter · refreshed weekly from db.satnogs.org